Find Gonets-D1 No. 15L

NORAD ID: 23789 Int'l Des: 1996-009 Owner: GONETS Country: RU operational
LEOCIRCULARPOLAR

Current View

Loading 3D Globe...

About Gonets-D1 No. 15L

Description loading...

Upcoming Passes

Passes for default location (London). Set your location on the main map for personalized predictions.

Altitude History

Loading altitude history...

Two-Line Element Set

1 23789U 96009C 26149.51311529 .00000033 00000-0 12299-3 0 9994
2 23789 82.5786 331.7745 0006306 105.2748 254.9041 12.62685552395294
Epoch: May 29, 2026 • Age: 18 hours

Current Status

Altitude 1437.2 km
Velocity 7.14 km/s
Sub-Earth Point -56.82°S, 174.69°E
Launch Date Feb 19, 1996
Age 30.2 years
Type other

Technical Details

Classification Payload
Mass 225.00 kg
Dry Mass 225.00 kg
Total Mass 225.00 kg
Length 1.60 m
Diameter 0.80 m
Span 7.00 m
Shape Cyl + Ant
Manufacturer NPOPMR
Bus Type Strela-3
Phase Status In Orbit
Owner/State GONETS/RU

Most Searched